World > North America > United States > Texas

Hourly Rolls, TX Regional Weather

Feedback E-mail the Weather

Quick WX

Rolls, TX Weather Maps

°F °C°F °C
Rolls Weather Map
UTC Time: 6/29/2022, 12:48
Your Time:

Rolls, TX Regional Weather

Expires:202206291300;;383479
ASUS44 KFWD 291215
RWRTX 
NORTH TEXAS HOURLY WEATHER ROUNDUP
NATIONAL WEATHER SERVICE FORT WORTH TX
700 AM CDT WED JUN 29 2022

NOTE: "FAIR" INDICATES FEW OR NO CLOUDS BELOW 12,000 FEET WITH NO
SIGNIFICANT WEATHER AND/OR OBSTRUCTIONS TO VISIBILITY.


TXZ083>090-098>101-113>116-127>130-139>142-154-155-291300-
WESTERN NORTH TEXAS
  
CITY           SKY/WX    TMP DP  RH WIND       PRES   REMARKS
WICHITA FALLS  FAIR      63  60  90 N5        30.19R                  
6HR MIN TEMP:  63; 6HR MAX TEMP:  70;                                

WF-KICKAPOO    FAIR      65  60  83 N6        30.20S                  
6HR MIN TEMP:  65; 6HR MAX TEMP:  71;                                

VERNON         FAIR      65  65  98 N5        30.21S                  
6HR MIN TEMP:  65; 6HR MAX TEMP:  72;                                

ABILENE        FAIR      69  59  70 S3        30.20R                  
6HR MIN TEMP:  69; 6HR MAX TEMP:  74;                                

ABILENE-DYESS  FAIR      69  59  72 CALM      30.18R                  
6HR MIN TEMP:  68; 6HR MAX TEMP:  75;                                

GRAHAM         FAIR      62  61  96 CALM      30.17S                  
BRECKENRIDGE   FAIR      66  66  99 CALM      30.19R FOG              
6HR MIN TEMP:  66; 6HR MAX TEMP:  73;                                

CISCO          FAIR      66  59  77 E5        30.18R                  
EASTLAND       FAIR      61  60  97 CALM      30.19S                  
6HR MIN TEMP:  60; 6HR MAX TEMP:  69;                                

RANGER         FAIR      60  59  96 CALM      30.20R                  
6HR MIN TEMP:  60; 6HR MAX TEMP:  67;                                

MINERAL WELLS  FAIR      65  59  81 CALM      30.17R                  
6HR MIN TEMP:  65; 6HR MAX TEMP:  72;                                

STEPHENVILLE   FAIR      67  58  71 CALM      30.21R                  
6HR MIN TEMP:  67; 6HR MAX TEMP:  73;                                

COMANCHE       FAIR      66  61  82 CALM      30.20R                  
COLEMAN        MOCLDY    68  58  70 CALM      30.20R                  
6HR MIN TEMP:  67; 6HR MAX TEMP:  73;                                

SAN SABA       FAIR      68  66  94 CALM      30.19R                  
6HR MIN TEMP:  68; 6HR MAX TEMP:  74;                                

$$


SKY/WX - Weather  TMP - Temperature  DP - Dew Point  RH - Humidity
WIND - Wind Direction/Speed PRES - Barometric Pressure VSB - Visibility
WCI - Wind Chill Index E13G22 Wind - East Wind 13 mph/Gusts of 22 mph

Trending Headlines

Rolls Radar Loop



Rolls Quick Facts


National Two Day Weather Forecast


E-mail the Rolls Weather Forecast

Voice your opinion or tell us about page issues...